Tracking 27420 objects as of 28-May-2023
HD Live streaming from Space Station
objects crossing your sky now

OPS 4682 DEB

Track OPS 4682 DEB now!
10-day predictions


NORAD ID: 38414
Int'l Code: 1965-027DT
Perigee: 1,249.5 km
Apogee: 1,310.5 km
Inclination: 90.3 °
Period: 111.0 minutes
Semi major axis: 7650 km
RCS: 0.0071 m2 (small)
Launch date: April 3, 1965
Source: United States (US)
Launch site: AIR FORCE WESTERN TEST RANGE (AFWTR)

Note: This is SATELLITE DEBRIS
Your satellite tracking list
Your tracking list is empty




NASA's NSSDC Master Catalog

Two Line Element Set (TLE):
1 38414U 65027DT  23146.95316406  .00000693  00000-0  23607-2 0  9998
2 38414  90.2628 327.2127 0039857 169.6525 190.5425 12.97263418996013
Source of the keplerian elements: AFSPC